Location: Unspecified
(48.2082°N, 0.0000°E)
Time: 05:06:43
(UTC+00:00)

A-11 Canister half - Pass Details

Date: 21 August 2020
Orbit: 1514 x 1686 km, 47.2° (Epoch: 21 September)

Event Time Altitude Azimuth Distance (km) Brightness Sun altitude
Rises 22:56:21 0° 285° (WNW) 4,849 12.1 -28.3°
Reaches altitude 10° 23:01:44 10° 262° (W) 3,892 11.2 -28.6°
Maximum altitude 23:05:52 13° 237° (WSW) 3,643 10.8 -28.8°
Enters shadow 23:07:17 13° 228° (SW) 3,680 10.7 -28.8°
